COSMOS 1194

Satellite information

Favourite Embed

Satellite Type and Status

PAYLOADIN ORBIT

Key statistics

Satellite COSMOS 1194 at a glance.

Uptime

16599

Days in orbit

Revolutions

≈ 12.5

Per day

Orbit

LEO

Low Earth Orbit

Inclination

74.0

Latest

Satellite identification and parameters

Extended collection of information and parameters for COSMOS 1194.

Object identification

Identified? True

Debris? False

Object name: COSMOS 1194

International designator: 1980-058C

Object number (NORAD): 11877

Object ID (CCSDS): 11877

Country: COMMONWEALTH OF INDEPENDENT STATES (CIS)

Current information (Y/N): Y

RCS size: MEDIUM

Orbital parameters

Period: 114.943 minutes

Inclination: 74.019 deg

SMA: 7830.95 km

Apoapsis: 1474.597 km

Periapsis: 1431.034 km

RAAN: 82.016 deg

Eccentricy: 0.00278146

Argument of periapsis: 252.692 deg

Mean anomaly: 107.1089 deg

Mean motion: 12.52798058 rev/day

Mean motion (dot): -0.00000016 rev/day2

B* drag term: 0.000002180301 1/REarth

Two-line elements (TLE)

Creation date: Dec. 19, 2025, 2:08 a.m.

Reference frame: TEME

Reference center: EARTH

Epoch: Dec. 18, 2025, 10:16 p.m. UTC

TLE line 0: 0 COSMOS 1194

TLE line 1: 1 11877U 80058C 25352.92803638 -.00000016 00000-0 21803-5 0 9998

TLE line 2: 2 11877 74.0190 82.0160 0027815 252.6920 107.1089 12.52798058 78371

Live tracking on map

Real-time ground track for satellite COSMOS 1194.

In-orbit conjunctions

A list of the most updated potential collisions computed for object COSMOS 1194.

Target Orbit TCA Probability of collision Miss distance Type
SL-14 DEB MEO 2024-11-29 14:26:58 0.0001620416 701.0 (m) DEBRIS

Associated space launch

Optical film-return reconnaissance satellite

COSMOS 1194 was lifted into orbit during the mission ‘Soyuz U | Zenit-6U 22’, on board a Soyuz U space rocket.

The launch took place on July 9, 1980, 12:40 p.m. from 41/1.

For more information about the launch, click the button.

Launch to space Soyuz U | Zenit-6U 22
Soyuz U | Zenit-6U 22

Agency: N/A

Status: Launch Successful

Launch date: July 9, 1980, 12:40 p.m. UTC

Rocket: Soyuz U

Launch pad: 41/1

Location: Plesetsk Cosmodrome, Russian Federation

...

Latest news about this satellite

There are no fresh news available about this satellite. Check back as we update our databases every day.


Newsletter sign-up

Weekly statistics, charts and insights to help you stay on top of the space industry.